Location: East Irvine
(33.6759°N, 117.7598°W)
Time: 00:34:06
(UTC+00:00)

COSMO-SKYMED 1 - Pass Details

Date: 15 November 2025
Orbit: 579 x 581 km, 97.9° (Epoch: 07 December)

Event Time Altitude Azimuth Distance (km) Brightness Sun altitude
Rises 01:07:20 0° 33° (NNE) 2,800 5.4 -4.5°
Reaches altitude 10° 01:10:13 10° 55° (NE) 1,895 4.4 -5.1°
Maximum altitude 01:12:48 16° 95° (E) 1,533 4.0 -5.6°
Drops below altitude 10° 01:15:22 10° 134° (SE) 1,887 4.8 -6.1°
Sets 01:18:12 0° 155° (SSE) 2,780 5.8 -6.7°
